FW0158 Weather Reports


Display with metric or nautical units.
time (UTC)temp
F
wind
direction
speed
MPH
gust
MPH
rain 1hr
in
rain 24hr
in
rain mn
in
humidity
%
barometer
mb
20260906110216 75 25 3.0 7.0 0.00 0.00 0.00 85 1014.2
20260906105536 75 13 2.0 7.0 0.00 0.00 0.00 85 1014.2
20260906105108 76 19 3.0 6.0 0.00 0.00 0.00 85 1014.2
20260906103537 76 108 2.0 4.0 0.00 0.00 0.00 83 1013.8
20260906102216 76 123 2.0 5.0 0.00 0.00 0.00 83 1013.8
20260906100857 76 134 2.0 9.0 0.00 0.00 0.00 84 1013.8
20260906100216 76 100 3.0 10.0 0.00 0.00 0.00 84 1013.8
20260906100002 77 104 4.0 9.0 0.00 0.00 0.00 84 1013.8
20260906094216 77 74 3.0 8.0 0.00 0.00 0.00 86 1013.8
20260906093535 77 98 2.0 4.0 0.00 0.00 0.00 87 1013.5
20260906092856 78 128 1.0 5.0 0.00 0.00 0.00 86 1013.1
20260906091747 78 136 2.0 7.0 0.00 0.00 0.00 86 1013.1
20260906091108 78 138 2.0 7.0 0.00 0.00 0.00 86 1013.1
20260906090215 78 127 3.0 7.0 0.00 0.00 0.00 87 1013.1
20260906085536 78 141 2.0 7.0 0.00 0.00 0.00 88 1013.1
20260906085105 78 121 4.0 7.0 0.00 0.00 0.00 88 1013.1
20260906084215 78 129 3.0 5.0 0.00 0.00 0.00 87 1013.1
20260906083746 78 140 2.0 7.0 0.00 0.00 0.00 88 1012.8
20260906083107 78 138 3.0 7.0 0.00 0.00 0.00 88 1012.8
20260906081109 77 107 4.0 8.0 0.00 0.00 0.00 94 1012.8
20260906080215 76 114 3.0 7.0 0.00 0.00 0.00 95 1012.4
20260906075745 77 121 1.0 4.0 0.00 0.00 0.00 94 1012.4
20260906075105 76 130 1.0 3.0 0.00 0.00 0.00 95 1012.4
20260906074426 76 17 1.0 2.0 0.00 0.00 0.00 96 1012.4
20260906073747 76 26 1.0 4.0 0.00 0.00 0.00 94 1012.4
20260906072428 77 45 1.0 4.0 0.00 0.00 0.00 92 1012.4
20260906071537 78 127 1.0 3.0 0.00 0.00 0.00 93 1012.4
20260906071323 78 137 1.0 4.0 0.00 0.00 0.00 92 1012.4
20260906070643 77 128 2.0 4.0 0.00 0.00 0.00 93 1012.4
20260906065959 77 97 1.0 2.0 0.00 0.00 0.00 93 1012.4
20260906063108 78 224 1.0 2.0 0.00 0.00 0.00 89 1012.4
20260906061536 78 205 1.0 2.0 0.00 0.00 0.00 90 1012.4
20260906060431 78 245 1.0 6.0 0.00 0.00 0.00 91 1012.1
20260906055746 78 42 1.0 2.0 0.00 0.00 0.00 90 1012.1
20260906055107 78 333 1.0 3.0 0.00 0.00 0.00 90 1012.1
20260906054427 78 315 2.0 3.0 0.00 0.00 0.00 91 1012.1
20260906053536 78 6 1.0 2.0 0.00 0.00 0.00 90 1012.1
20260906052217 79 348 1.0 2.0 0.00 0.00 0.00 89 1012.4
20260906051319 80 57 1.0 1.0 0.00 0.00 0.00 88 1012.4
20260906050853 80 35 0.0 2.0 0.00 0.00 0.00 87 1012.4
20260906045321 80 359 1.0 3.0 0.00 0.00 0.00 86 1012.4
20260906044641 80 118 1.0 5.0 0.00 0.00 0.00 88 1012.8
20260906043536 80 22 1.0 6.0 0.00 0.00 0.00 88 1012.8
20260906043323 80 105 0.0 2.0 0.00 0.00 0.00 87 1012.8
20260906041959 81 121 1.0 2.0 0.00 0.00 0.00 85 1012.4
20260906041106 81 11 0.0 1.0 0.00 0.00 0.00 84 1012.8
20260906040216 81 101 0.0 2.0 0.00 0.00 0.00 85 1012.4
20260906035748 81 12 1.0 2.0 0.00 0.00 0.00 85 1012.4
20260906034216 82 110 1.0 3.0 0.00 0.00 0.00 84 1012.4
20260906033110 82 46 1.0 2.0 0.00 0.00 0.00 83 1012.4
20260906032426 82 34 1.0 2.0 0.00 0.00 0.00 82 1012.4
20260906031536 82 42 1.0 2.0 0.00 0.00 0.00 81 1012.4
20260906030856 83 81 1.0 2.0 0.00 0.00 0.00 79 1012.4
20260906030428 83 148 1.0 2.0 0.00 0.00 0.00 78 1012.4
20260906025536 83 132 1.0 2.0 0.00 0.00 0.00 79 1012.4
20260906025109 83 47 1.0 2.0 0.00 0.00 0.00 79 1012.4
20260906023750 83 11 1.0 2.0 0.00 0.00 0.00 78 1012.1
20260906022640 83 19 1.0 2.0 0.00 0.00 0.00 77 1011.8
20260906021536 84 48 0.0 2.0 0.00 0.00 0.00 76 1011.8
20260906021108 84 55 1.0 2.0 0.00 0.00 0.00 75 1011.8
20260906020217 85 36 1.0 1.0 0.00 0.00 0.00 73 1011.8
20260906015749 85 58 0.0 2.0 0.00 0.00 0.00 72 1011.4
20260906014857 86 301 1.0 2.0 0.00 0.00 0.00 69 1011.4
20260906014425 86 299 1.0 2.0 0.00 0.00 0.00 69 1011.4
20260906012857 87 257 1.0 1.0 0.00 0.00 0.00 67 1011.4
20260906012640 87 255 1.0 1.0 0.00 0.00 0.00 66 1011.4
20260906011536 88 299 1.0 1.0 0.00 0.00 0.00 66 1011.4
20260906011109 88 222 0.0 1.0 0.00 0.00 0.00 65 1011.4
20260906005537 89 118 1.0 3.0 0.00 0.00 0.00 63 1011.4
20260906004426 90 302 0.0 1.0 0.00 0.00 0.00 58 1011.1
20260906003536 91 5 1.0 1.0 0.00 0.00 0.00 57 1011.1
20260906002216 92 31 0.0 1.0 0.00 0.00 0.00 54 1011.1
20260906000219 94 39 0.0 2.0 0.00 0.00 0.00 50 1011.4
20260905235745 95 14 1.0 2.0 0.00 0.00 0.00 48 1011.4
20260905235106 96 11 1.0 2.0 0.00 0.00 0.00 46 1011.4
20260905233536 97 23 1.0 4.0 0.00 0.00 0.00 45 1011.4
20260905232216 98 17 1.0 4.0 0.00 0.00 0.00 43 1011.4
20260905231536 98 84 2.0 4.0 0.00 0.00 0.00 43 1011.1
20260905230857 98 143 1.0 4.0 0.00 0.00 0.00 42 1011.1
20260905225959 99 106 2.0 5.0 0.00 0.00 0.00 42 1011.1
20260905225533 99 71 1.0 8.0 0.00 0.00 0.00 42 1011.1
20260905223748 100 106 3.0 5.0 0.00 0.00 0.00 40 1011.4
20260905223109 100 114 2.0 5.0 0.00 0.00 0.00 40 1011.4
20260905222429 99 69 2.0 7.0 0.00 0.00 0.00 39 1011.1
20260905222003 99 53 2.0 7.0 0.00 0.00 0.00 40 1011.4
20260905221111 100 127 2.0 5.0 0.00 0.00 0.00 38 1011.4
20260905220217 101 90 2.0 5.0 0.00 0.00 0.00 39 1011.4
20260905214856 100 85 2.0 7.0 0.00 0.00 0.00 40 1011.4
20260905214428 101 41 1.0 5.0 0.00 0.00 0.00 38 1011.4
20260905213535 100 58 2.0 6.0 0.00 0.00 0.00 39 1011.4
20260905212215 99 28 2.0 6.0 0.00 0.00 0.00 41 1011.4
20260905210215 98 339 2.0 3.0 0.00 0.00 0.00 41 1011.4
20260905205535 98 215 1.0 4.0 0.00 0.00 0.00 41 1011.4
20260905204214 98 12 3.0 10.0 0.00 0.00 0.00 41 1011.8
20260905203534 100 218 2.0 8.0 0.00 0.00 0.00 41 1011.8
20260905202214 100 145 1.0 6.0 0.00 0.00 0.00 39 1012.1
20260905201320 100 83 3.0 8.0 0.00 0.00 0.00 40 1012.1
20260905200428 101 36 2.0 8.0 0.00 0.00 0.00 39 1012.1
20260905194424 100 150 5.0 9.0 0.00 0.00 0.00 38 1012.8
20260905193534 100 147 4.0 10.0 0.00 0.00 0.00 38 1012.8
20260905193106 98 117 4.0 11.0 0.00 0.00 0.00 41 1012.8
20260905192426 101 157 4.0 10.0 0.00 0.00 0.00 37 1012.8
20260905191321 100 160 4.0 8.0 0.00 0.00 0.00 39 1013.5
20260905190636 101 9 3.0 8.0 0.00 0.00 0.00 38 1013.5
20260905185105 100 301 2.0 10.0 0.00 0.00 0.00 39 1013.5
20260905183746 100 93 2.0 7.0 0.00 0.00 0.00 39 1013.5
20260905183106 100 62 3.0 8.0 0.00 0.00 0.00 40 1013.8
20260905180214 100 131 2.0 6.0 0.00 0.00 0.00 39 1013.8
20260905175534 99 2 3.0 7.0 0.00 0.00 0.00 38 1013.8
20260905174854 99 180 2.0 7.0 0.00 0.00 0.00 38 1013.8
20260905173534 99 24 3.0 6.0 0.00 0.00 0.00 40 1014.2
20260905172641 97 173 2.0 8.0 0.00 0.00 0.00 44 1014.2
20260905171535 99 173 2.0 7.0 0.00 0.00 0.00 40 1014.2
20260905171317 97 104 2.0 7.0 0.00 0.00 0.00 44 1014.2
20260905165535 97 197 3.0 7.0 0.00 0.00 0.00 44 1014.5
20260905164854 96 122 3.0 7.0 0.00 0.00 0.00 47 1014.5
20260905164639 96 179 4.0 9.0 0.00 0.00 0.00 47 1014.5
20260905163535 98 71 1.0 7.0 0.00 0.00 0.00 45 1014.9
20260905162214 95 299 1.0 7.0 0.00 0.00 0.00 48 1014.9
20260905161744 96 17 2.0 6.0 0.00 0.00 0.00 47 1014.9
20260905160854 97 62 2.0 4.0 0.00 0.00 0.00 46 1014.9
20260905160214 95 155 2.0 6.0 0.00 0.00 0.00 48 1015.2
20260905155534 95 160 2.0 8.0 0.00 0.00 0.00 48 1015.2
20260905154854 94 111 3.0 8.0 0.00 0.00 0.00 48 1015.2
20260905154001 93 16 2.0 6.0 0.00 0.00 0.00 53 1015.2
20260905153103 91 344 3.0 6.0 0.00 0.00 0.00 55 1015.2
20260905152215 91 354 3.0 5.0 0.00 0.00 0.00 54 1015.2
20260905150215 91 344 2.0 5.0 0.00 0.00 0.00 56 1015.2
20260905145534 91 352 2.0 5.0 0.00 0.00 0.00 57 1015.2
20260905144854 90 213 1.0 4.0 0.00 0.00 0.00 61 1015.2
20260905144641 89 127 2.0 4.0 0.00 0.00 0.00 61 1015.2
20260905143748 90 138 2.0 3.0 0.00 0.00 0.00 59 1015.2
20260905143104 89 4 2.0 3.0 0.00 0.00 0.00 59 1015.6
20260905142425 88 332 2.0 3.0 0.00 0.00 0.00 61 1015.6
20260905141535 88 327 1.0 4.0 0.00 0.00 0.00 64 1015.6
20260905140855 87 29 1.0 2.0 0.00 0.00 0.00 64 1015.2
20260905135747 85 338 1.0 2.0 0.00 0.00 0.00 69 1015.6
20260905134855 85 81 0.0 1.0 0.00 0.00 0.00 72 1015.2
20260905133744 82 348 1.0 2.0 0.00 0.00 0.00 77 1015.6
20260905131746 80 300 1.0 2.0 0.00 0.00 0.00 81 1015.6
20260905130854 80 297 0.0 2.0 0.00 0.00 0.00 80 1015.6
20260905130215 80 43 0.0 2.0 0.00 0.00 0.00 81 1015.6
20260905125534 79 99 1.0 2.0 0.00 0.00 0.00 82 1015.6
20260905125109 78 86 0.0 2.0 0.00 0.00 0.00 86 1015.6
20260905124214 76 41 1.0 3.0 0.00 0.00 0.00 88 1015.6
20260905123534 76 62 1.0 4.0 0.00 0.00 0.00 90 1015.6
20260905123106 75 24 1.0 4.0 0.00 0.00 0.00 93 1015.6
20260905122639 74 23 2.0 3.0 0.00 0.00 0.00 93 1015.6
20260905121534 74 50 1.0 2.0 0.00 0.00 0.00 94 1015.2
20260905121321 73 88 1.0 4.0 0.00 0.00 0.00 97 1015.2
20260905115317 72 288 1.0 1.0 0.00 0.00 0.00 99 1015.2
20260905114638 72 303 0.0 2.0 0.00 0.00 0.00 100 1015.2
20260905113534 72 301 1.0 2.0 0.00 0.00 0.00 100 1014.9
20260905113319 72 24 1.0 2.0 0.00 0.00 0.00 100 1014.9
20260905112215 72 36 1.0 2.0 0.00 0.00 0.00 99 1014.9